CZ-4C DEB

Satellite information

Favourite Embed

Satellite Type and Status

DEBRISIN ORBIT

Key statistics

Satellite CZ-4C DEB at a glance.

Uptime

4351

Days in orbit

Revolutions

≈ 13.9

Per day

Orbit

SSO

Sun Synchronous Orbit

Inclination

100.6

Latest

Satellite identification and parameters

Extended collection of information and parameters for CZ-4C DEB.

Object identification

Identified? True

Debris? True

Object name: CZ-4C DEB

International designator: 2013-065G

Object number (NORAD): 43631

Object ID (CCSDS): 43631

Country: PEOPLES REPUBLIC OF CHINA (PRC)

Current information (Y/N): Y

RCS size: SMALL

Orbital parameters

Period: 103.599 minutes

Inclination: 100.5904 deg

SMA: 7306.854 km

Apoapsis: 1068.156 km

Periapsis: 789.283 km

RAAN: 78.4692 deg

Eccentricy: 0.01908298

Argument of periapsis: 94.0005 deg

Mean anomaly: 268.2985 deg

Mean motion: 13.89975352 rev/day

Mean motion (dot): 0.0000589 rev/day2

B* drag term: 0.0041615337 1/REarth

Two-line elements (TLE)

Creation date: Oct. 19, 2025, 2:20 a.m.

Reference frame: TEME

Reference center: EARTH

Epoch: Oct. 18, 2025, 8:17 p.m. UTC

TLE line 0: 0 CZ-4C DEB

TLE line 1: 1 43631U 13065G 25291.84546431 .00005890 00000-0 41615-2 0 9997

TLE line 2: 2 43631 100.5904 78.4692 0190830 94.0005 268.2985 13.89975352361117

Live tracking on map

Real-time ground track for satellite CZ-4C DEB.

In-orbit conjunctions

A list of the most updated potential collisions computed for object CZ-4C DEB.

Target Orbit TCA Probability of collision Miss distance Type
COSMOS 2181 LEO 2025-08-08 03:53:42 0.0001487181 96.0 (m) PAYLOAD
GGSE 2 LEO 2025-03-02 23:15:25 0.0001556264 341.0 (m) PAYLOAD

Associated space launch

CZ-4C DEB was lifted into orbit during the mission ‘Long March 4C | Yaogan 19’, on board a Long March 4C space rocket.

The launch took place on Nov. 20, 2013, 3:31 a.m. from Launch Complex 9.

For more information about the launch, click the button.

Launch to space Long March 4C | Yaogan 19
Long March 4C | Yaogan 19

Agency: N/A

Status: Launch Successful

Launch date: Nov. 20, 2013, 3:31 a.m. UTC

Rocket: Long March 4C

Launch pad: Launch Complex 9

Location: Taiyuan Satellite Launch Center, People's Republic of China

...

Latest news about this satellite

There are no fresh news available about this satellite. Check back as we update our databases every day.


Newsletter sign-up

Weekly statistics, charts and insights to help you stay on top of the space industry.